Location: La Cure
(46.4647°N, 6.0731°E)
Time: 00:14:50
(UTC+00:00)

Daily predictions for brighter satellites

Satellite Brightness Start Highest point End
(mag) Time Altitude Azimuth Time Altitude Azimuth Time Altitude Azimuth
ALOS 4.5 02:02:17 10° NE 02:05:10 22° ENE 02:05:10 22° ENE
Resurs 1-4 Rocket 4.2 02:01:46 10° N 02:03:14 18° N 02:03:14 18° N
IDEFIX/ARIANE 42P 4.4 02:03:29 10° N 02:05:39 25° N 02:05:39 25° N
Cosmos 1833 Rocket 3.8 02:13:01 41° NNE 02:13:01 41° NNE 02:16:36 10° NNE
CZ-2D R/B 4.2 02:17:21 10° N 02:18:59 19° N 02:18:59 19° N
CENTAUR R/B 3.5 02:27:13 33° SE 02:28:03 34° ESE 02:34:02 10° NE
Lacrosse 4 Rocket 3.9 02:30:46 15° N 02:33:03 21° NE 02:36:26 10° E
Meteor 1-10 Rocket 4.4 02:39:07 66° NE 02:39:07 66° NE 02:44:08 10° NNE
Cosmos 2082 Rocket 2.6 02:38:50 55° ESE 02:38:50 55° ESE 02:44:15 10° NE
Cosmos 1447 Rocket 4.4 02:32:40 10° N 02:38:47 81° NE 02:38:47 81° NE
ADEOS II 3.7 02:40:10 10° N 02:42:28 24° NNW 02:42:28 24° NNW
CZ-2C R/B 3.2 02:45:48 10° NNE 02:50:34 47° E 02:51:09 44° ESE
DELTA 2 R/B (1) 4.5 02:56:59 37° SSE 02:56:59 37° SSE 03:01:02 10° ESE
USA 306 4.4 03:00:25 30° NNE 03:00:25 30° NNE 03:03:07 10° NE
COSMOS 2406 3.1 03:01:52 79° NW 03:01:52 79° NW 03:07:29 10° NNE
BREEZE-M DEB (TANK) 3.8 03:04:00 30° ESE 03:04:00 30° ESE 03:06:59 10° ESE
NOSS 3-2 (A) 3.6 03:01:33 50° SSE 03:02:36 58° ESE 03:08:44 10° NE
Cosmos 1605 Rocket 4.3 03:06:06 47° NW 03:06:06 47° NW 03:11:10 10° N
ATLAS CENTAUR R/B 2.5 03:08:06 42° NNW 03:08:06 42° NNW 03:11:52 10° NNE
Cosmos 1328 Rocket 4.4 03:12:11 41° N 03:12:11 41° N 03:15:10 10° N
Cosmos 1933 Rocket 4.3 03:08:13 10° N 03:12:34 53° ENE 03:16:51 10° SSE
Cosmos 2322 Rocket 4.0 03:09:05 10° N 03:14:06 31° NE 03:19:04 10° ESE
X-37B 3.5 03:18:10 11° ESE 03:18:10 11° ESE 03:18:20 10° ESE
Meteor 1-11 Rocket 3.8 03:11:48 10° NNW 03:17:41 62° W 03:18:14 59° WSW
Cosmos 1980 Rocket 3.3 03:23:06 28° S 03:23:06 28° S 03:25:44 10° S
BREEZE M DEB (TANK) 4.3 03:16:14 31° SW 03:23:01 68° SSE 03:27:44 10° ENE
USA 308 4.0 03:25:30 32° NNW 03:25:31 32° NNW 03:29:15 10° NE
Cosmos 1850 Rocket 4.0 03:20:49 10° NNW 03:26:11 83° ENE 03:31:32 10° SSE
Cosmos 44 Rocket 3.4 03:26:24 53° NW 03:26:24 53° NW 03:30:54 10° NNE
PAYLOAD A 3.8 03:21:58 10° NNE 03:26:52 85° WNW 03:28:15 49° SSW
ATLAS 5 CENTAUR R/B 4.4 03:25:01 10° N 03:27:22 13° NNE 03:29:56 10° NE
SL-19 R/B 4.3 03:21:41 10° NNE 03:27:51 76° WNW 03:30:17 38° SSW
Cosmos 1802 Rocket 4.2 03:23:29 10° S 03:29:48 74° E 03:36:06 10° NNE
Meteor 2-9 Rocket 4.3 03:24:41 10° N 03:30:26 79° ENE 03:35:58 10° SSE
Cosmos 1378 3.6 03:30:13 44° SE 03:31:00 56° E 03:34:35 10° NNE
CBERS-1 4.1 03:28:26 10° N 03:33:26 54° WNW 03:33:56 52° W
Cosmos 2056 Rocket 4.4 03:35:20 31° NW 03:35:20 31° NW 03:39:28 10° N
Meteor 1-19 Rocket 4.2 03:32:43 14° S 03:37:21 79° E 03:42:47 10° NNE
Cosmos 2173 Rocket 3.8 03:33:19 22° SSW 03:37:27 77° W 03:43:34 10° N
Cosmos 1515 Rocket 3.4 03:37:57 58° SW 03:38:40 70° W 03:43:09 10° N
GP-B 3.6 03:35:21 10° SSE 03:39:41 59° E 03:44:04 10° N
Cosmos 1461 2.7 03:42:22 66° WSW 03:42:48 75° NW 03:47:01 10° NNE
ALOS 2.6 03:39:05 10° N 03:43:31 44° WNW 03:43:37 44° WNW
Cosmos 2278 3.6 03:38:53 10° NNW 03:44:31 67° WSW 03:50:05 10° SSE
SL-16 R/B 2.6 03:39:22 10° NNW 03:45:03 66° ENE 03:50:41 10° SE
USA 305 4.2 03:44:58 25° NNW 03:46:01 29° N 03:49:38 10° NE
FENGYUN 3A 4.2 03:45:44 10° N 03:50:39 37° WNW 03:51:34 35° W
METEOR-M 4.1 03:47:41 10° N 03:53:01 68° WNW 03:56:56 19° SSW
CZ-3 R/B 4.3 03:39:43 20° SW 03:55:32 35° S 04:04:15 10° SE
Cosmos 1833 Rocket 4.1 03:54:43 21° WNW 03:55:33 21° NW 03:59:48 10° N
IRS-P3 4.0 03:50:21 10° NNE 03:55:42 76° WNW 04:00:46 11° SSW
Cosmos 1741 Rocket 4.0 03:52:44 10° NNW 03:57:51 56° WSW 04:02:55 10° S
Cosmos 192 4.4 03:54:32 12° SSW 03:59:03 80° ESE 04:04:02 10° NNE
Cosmos 2228 Rocket 3.6 03:57:45 10° S 04:02:09 61° E 04:06:32 10° NNE
Cosmos 1331 Rocket 3.9 04:00:12 16° SSW 04:04:24 80° WNW 04:09:36 10° NNE
Cosmos 2219 Rocket 4.4 04:00:44 10° N 04:05:20 25° NE 04:09:53 10° ESE
Spot 4 Rocket 4.4 04:00:43 10° NNE 04:05:51 66° ESE 04:10:56 10° S
YAOGAN 6 2.4 04:02:37 10° N 04:06:15 84° WNW 04:09:36 12° SSW
Cosmos 1484 Rocket 2.8 04:07:28 10° N 04:11:25 62° WNW 04:14:54 13° SSW
Lacrosse 5 rocket 3.9 04:08:21 10° S 04:11:48 21° SE 04:15:13 10° ENE
Lacrosse 4 Rocket 1.5 04:07:41 10° NW 04:12:01 59° WSW 04:16:22 10° SSE
ARIANE 5 R/B 2.6 04:08:25 10° N 04:13:19 54° WNW 04:18:02 11° SW
CZ-2C R/B 2.8 04:08:53 10° S 04:13:56 48° W 04:19:08 10° NNW
Helios 1B rocket 3.1 04:10:16 10° N 04:13:58 34° WNW 04:15:11 28° WSW
Meteor 1-29 2.7 04:13:41 10° NNE 04:17:00 89° WNW 04:20:18 10° SSW
CENTAUR R/B 2.8 04:14:25 22° WSW 04:18:20 55° NW 04:25:28 10° NE
CZ-2C R/B 3.3 04:13:36 10° NNE 04:19:21 84° ESE 04:24:48 10° SSW
Cosmos 2100 Rocket 4.5 04:15:24 16° SW 04:19:39 36° WNW 04:25:19 10° N
Cosmos 1110 Rocket 4.1 04:16:35 15° SW 04:20:46 54° WNW 04:25:52 10° NNE
CZ-4C R/B 3.5 04:16:43 10° SSE 04:20:58 89° NE 04:25:21 10° NNW
Cosmos 2016 Rocket 4.1 04:15:01 10° SSW 04:21:16 57° WNW 04:27:33 10° N
Cosmos 2333 Rocket 3.5 04:16:29 10° NNW 04:21:54 41° NE 04:27:13 10° SE
Cosmos 2082 Rocket 3.2 04:20:42 21° W 04:23:10 28° NW 04:28:01 10° N
Cosmos 1707 Rocket 4.2 04:19:07 10° S 04:23:23 59° E 04:27:39 10° NNE
COSMO-SKYMED 1 3.5 04:19:18 10° SSE 04:23:29 50° ENE 04:27:42 10° N
SL-08 R/B 4.4 04:17:49 10° SSW 04:23:51 63° WNW 04:29:59 10° N
Okean 1 4.2 04:23:13 23° WSW 04:24:40 29° WNW 04:28:13 10° NNW
Cosmos 1452 Rocket 4.2 04:24:11 19° WSW 04:27:16 35° WNW 04:32:06 10° N
USA 276 2.5 04:26:13 20° SW 04:28:01 52° SSE 04:30:58 10° ENE
Cosmos 1869 Rocket 3.7 04:24:07 10° NNW 04:28:24 50° W 04:32:38 10° SSW
CZ-2C R/B 3.5 04:24:33 10° N 04:28:28 24° WNW 04:30:30 18° W
Meteor 1-18 Rocket 4.2 04:22:48 10° SSW 04:28:28 66° WNW 04:34:03 10° N
Cosmos 2360 Rocket 2.6 04:23:25 10° NNW 04:29:02 68° ENE 04:34:38 10° SE
Envisat 3.0 04:24:45 10° N 04:29:47 64° WNW 04:34:47 10° SSW
USA 307 4.3 04:27:02 13° NW 04:30:02 28° N 04:33:38 10° ENE
Cosmos 968 Rocket 3.4 04:25:48 10° NNW 04:30:59 80° WSW 04:36:06 10° SSE
Meteor 2-10 4.5 04:27:11 10° N 04:32:19 63° ENE 04:37:18 10° SSE
COSMOS 2487 4.4 04:30:31 10° SSE 04:32:56 25° ESE 04:35:22 10° NE
MINOTAUR 4 R/B 4.1 04:31:52 10° SSE 04:35:22 81° ENE 04:38:52 10° NNW
USA 306 4.3 04:35:54 10° NW 04:39:25 29° N 04:43:01 10° ENE
H-2A R/B 2.6 04:37:09 10° N 04:40:45 61° WNW 04:44:23 10° SSW
Cosmos 2061 Rocket 4.2 04:35:45 10° SSW 04:41:40 47° WNW 04:47:40 10° N
SL-24 R/B - RUBIN 2 4.2 04:38:53 15° WSW 04:42:02 37° NW 04:46:07 10° NNE
PSLV R/B 3.5 04:41:41 10° N 04:46:00 73° WNW 04:50:14 10° SSW
ATLAS CENTAUR R/B 3.8 04:44:26 10° WNW 04:47:02 14° NNW 04:49:36 10° N
Cosmos 1733 Rocket 3.1 04:43:00 10° N 04:47:28 90° ESE 04:51:51 10° S
Cosmos 1066 Rocket 4.5 04:43:05 10° S 04:48:48 76° E 04:54:25 10° NNE
CZ-2D R/B 4.4 04:46:42 10° N 04:50:00 25° WNW 04:53:19 10° WSW
X-37B 2.5 04:49:24 11° WSW 04:50:34 14° SSW 04:52:07 10° S
Meteor 2-4 Rocket 3.9 04:45:23 10° SSW 04:50:56 51° WNW 04:56:22 10° N
COSMOS 2428 4.4 04:47:56 10° NNW 04:53:11 35° NE 04:58:23 10° ESE
NOSS 3-2 (A) 4.2 04:48:58 12° W 04:53:48 35° NNW 04:59:51 10° NNE
NOSS 3-2 (C) 3.6 04:48:52 10° WSW 04:54:17 53° NW 05:00:40 10° NE
Genesis I 4.3 04:50:28 10° SSW 04:54:20 49° ESE 04:58:16 10° NE
Cosmos 1975 3.8 04:53:28 10° NNW 04:56:47 26° W 05:00:05 10° SW
SL-08 R/B 4.3 04:54:06 10° SSW 04:57:56 25° W 05:01:51 10° NW
Cosmos 2322 Rocket 2.4 04:52:55 10° NW 04:58:24 50° WSW 05:03:49 10° S
Cosmos 1437 Rocket 4.0 04:55:36 10° N 04:59:17 45° ENE 05:03:02 10° SSE
Cosmos 2333 4.5 04:53:45 10° NNW 04:59:26 74° ENE 05:05:02 10° SSE
Cosmos 1242 Rocket 3.2 04:57:43 10° NNW 05:00:44 29° W 05:03:42 10° SSW
CZ-2C R/B 3.0 04:57:12 10° N 05:00:54 48° WNW 05:04:37 10° SSW
Cosmos 2233 Rocket 4.3 04:56:37 10° SSW 05:02:39 46° WNW 05:08:42 10° N
Cosmos 1992 Rocket 4.2 04:59:38 10° SSW 05:04:49 78° ESE 05:10:03 10° NNE
USA 308 4.2 05:02:00 10° NW 05:05:40 30° N 05:09:21 10° ENE
COSMOS 2455 2.9 05:02:04 10° NW 05:08:02 66° WSW 05:13:59 10° SSE
Cosmos 1805 3.4 05:06:11 10° NNW 05:09:56 48° W 05:13:39 10° S
USA 238 DEB 3.9 05:03:53 10° WSW 05:10:09 51° NW 05:16:53 10° NE
USA 238 3.9 05:03:59 10° WSW 05:10:15 51° NW 05:16:59 10° NE
